Location: ???
(30.4832°N, 114.1966°E)
Time: 13:49:53
(UTC+00:00)

H-2A R/B - Pass Details

Date: 14 July 2020
Orbit: 733 x 837 km, 98.2° (Epoch: 05 August)

Event Time Altitude Azimuth Distance (km) Brightness Sun altitude
Rises 11:40:50 0° 162° (SSE) 3,369 4.9 -3.4°
Reaches altitude 10° 11:43:11 10° 161° (SSE) 2,441 4.2 -3.9°
Maximum altitude 11:48:37 77° 76° (ENE) 861 2.2 -4.9°
Drops below altitude 10° 11:54:01 10° 351° (N) 2,436 5.2 -5.9°
Sets 11:56:22 0° 350° (N) 3,362 5.9 -6.4°
